Regional Weather Roundup
Issued by NWS Little Rock, AR

Home | Current Version | Previous Version | Graphics & Text | Print | Product List | Glossary On
Versions: 1 2 3 4 5 6 7 8 9 10 11 12 13 14 15 16 17 18 19 20 21 22 23 24 25 26 27 28 29 30 31
000
ASUS44 KLZK 221905
RWRLZK

WEATHER ROUNDUP FOR ARKANSAS
NATIONAL WEATHER SERVICE LITTLE ROCK AR
200 PM CDT SAT APR 22 2017

NOTE: "FAIR" INDICATES FEW OR NO CLOUDS BELOW 12,000 FEET WITH NO
SIGNIFICANT WEATHER AND/OR OBSTRUCTIONS TO VISIBILITY.

ARZ001-003-010-029-222000-
NORTHWEST ARKANSAS

CITY           SKY/WX    TMP DP  RH WIND       PRES   REMARKS
FAYETTEVILLE   CLOUDY    47  46  97 N12       30.03R FOG
FORT SMITH     LGT RAIN  54  47  77 NW18G24   30.02R
HARRISON       CLOUDY    46  45  96 N6        30.01S
BENTONVILLE    CLOUDY    46  43  87 N8        30.05R
ROGERS         LGT RAIN  45  44  97 N9G16     30.05S FOG
SILOAM SPGS    CLOUDY    46  41  81 N15       30.06R
HIGHFILL       CLOUDY    48  45  89 N13       30.04S
SPRINGDALE     CLOUDY    46  46 100 N13       30.05S FOG
$$

ARZ004-005-016-222000-
NORTH CENTRAL ARKANSAS

CITY           SKY/WX    TMP DP  RH WIND       PRES   REMARKS
BATESVILLE     CLOUDY    52  46  82 NW3       29.98S
FLIPPIN        CLOUDY    50  41  71 NE7       29.98F
MTN HOME       CLOUDY    49  44  83 NE5       29.99S
$$

ARZ040-041-222000-
WEST CENTRAL ARKANSAS

CITY           SKY/WX    TMP DP  RH WIND       PRES   REMARKS
MENA           CLOUDY    59  54  82 NW10      29.98S
MOUNT IDA      CLOUDY    60  50  69 NW9G17    29.93S
$$

ARZ009-017-025-026-028-222000-
NORTHEAST ARKANSAS

CITY           SKY/WX    TMP DP  RH WIND       PRES   REMARKS
JONESBORO      CLOUDY    51  48  89 N9        29.95S
NEWPORT        LGT RAIN  50  48  93 N20       29.96
WALNUT RIDGE   CLOUDY    48  45  87 N15       29.97S
BLYTHEVILLE    CLOUDY    53  52  96 NE16      29.92S
$$

ARZ022-023-033-042-044-222000-
CENTRAL ARKANSAS

CITY           SKY/WX    TMP DP  RH WIND       PRES   REMARKS
LITTLE ROCK    CLOUDY    58  53  84 N7        29.95R
N LITTLE ROCK    N/A     56  53  88 N6        29.95R
JACKSONVILLE   CLOUDY    59  54  82 N8        29.94R
CONWAY           N/A     59  54  82 N8        29.93S
SEARCY         CLOUDY    54  51  90 N13       29.96S
HOT SPRINGS    CLOUDY    61  55  81 VRB7      29.94S
RUSSELLVILLE   CLOUDY    60  51  72 N9        29.94S
$$

ARZ036-222000-
EAST ARKANSAS

CITY           SKY/WX    TMP DP  RH WIND       PRES   REMARKS
WEST MEMPHIS   CLOUDY    53  53 100 N13G21    29.89R FOG
$$

ARZ050-053-066-070-073-222000-
SOUTHWEST ARKANSAS

CITY           SKY/WX    TMP DP  RH WIND       PRES   REMARKS
ARKADELPHIA    CLOUDY    64  56  75 NW8       29.94F
CAMDEN         CLOUDY    64  55  72 N6        29.93S
TEXARKANA      PTSUNNY   63  50  62 NW16      29.96S
EL DORADO      CLOUDY    64  59  83 NW12      29.93R
DE QUEEN       CLOUDY    62  50  64 NW9G18    29.97R
$$

ARZ056-057-069-222000-
SOUTHEAST ARKANSAS

CITY           SKY/WX    TMP DP  RH WIND       PRES   REMARKS
PINE BLUFF     CLOUDY    58  54  86 N10       29.94R
STUTTGART      CLOUDY    57  45  62 N18       29.94R
MONTICELLO     CLOUDY    59  56  89 NW9       29.91R

$$






USA.gov is the U.S. government's official web portal to all federal, state and local government web resources and services.